Time,TemperatureF,DewpointF,PressureIn,WindDirection,WindDirectionDegrees,WindSpeedMPH,WindSpeedGustMPH,Humidity,HourlyPrecipIn,Conditions,Clouds,dailyrainin,SoftwareType,DateUTC
2013-04-27 02:00:00,41.0,-99.9,30.37,SSE,160,17.0,-999.0,-999,-99.99,,,-99.99,,2013-04-27 06:00:00,
2013-04-27 02:22:00,41.0,-99.9,30.37,SSE,160,17.0,-999.0,-999,-99.99,,,-99.99,,2013-04-27 06:22:00,
2013-04-27 02:32:00,41.0,-99.9,30.37,SSE,160,17.0,-999.0,-999,-99.99,,,-99.99,,2013-04-27 06:32:00,
2013-04-27 02:42:00,41.0,-99.9,30.37,SSE,160,17.0,-999.0,-999,-99.99,,,-99.99,,2013-04-27 06:42:00,
2013-04-27 02:52:00,41.0,-99.9,30.37,SSE,160,17.0,-999.0,-999,-99.99,,,-99.99,,2013-04-27 06:52:00,
2013-04-27 03:00:00,42.0,-99.9,30.37,South,180,14.0,-999.0,-999,-99.99,,,-99.99,,2013-04-27 07:00:00,
2013-04-27 03:22:00,42.0,-99.9,30.37,South,180,14.0,-999.0,-999,-99.99,,,-99.99,,2013-04-27 07:22:00,
2013-04-27 03:32:00,42.0,-99.9,30.37,South,180,14.0,-999.0,-999,-99.99,,,-99.99,,2013-04-27 07:32:00,
2013-04-27 03:42:00,42.0,-99.9,30.37,South,180,14.0,-999.0,-999,-99.99,,,-99.99,,2013-04-27 07:42:00,
2013-04-27 03:52:00,42.0,-99.9,30.37,South,180,14.0,-999.0,-999,-99.99,,,-99.99,,2013-04-27 07:52:00,
2013-04-27 04:00:00,41.0,-99.9,30.38,South,190,32.0,-999.0,-999,-99.99,,,-99.99,,2013-04-27 08:00:00,
2013-04-27 04:22:00,41.0,-99.9,30.38,South,190,32.0,-999.0,-999,-99.99,,,-99.99,,2013-04-27 08:22:00,
2013-04-27 04:33:00,41.0,-99.9,30.38,South,190,32.0,-999.0,-999,-99.99,,,-99.99,,2013-04-27 08:33:00,
2013-04-27 04:42:00,41.0,-99.9,30.38,South,190,32.0,-999.0,-999,-99.99,,,-99.99,,2013-04-27 08:42:00,
2013-04-27 04:52:00,41.0,-99.9,30.38,South,190,32.0,-999.0,-999,-99.99,,,-99.99,,2013-04-27 08:52:00,
2013-04-27 05:00:00,41.0,-99.9,30.38,SSE,150,7.0,-999.0,-999,-99.99,,,-99.99,,2013-04-27 09:00:00,
2013-04-27 05:22:00,41.0,-99.9,30.38,SSE,150,7.0,-999.0,-999,-99.99,,,-99.99,,2013-04-27 09:22:00,
2013-04-27 05:33:00,41.0,-99.9,30.38,SSE,150,7.0,-999.0,-999,-99.99,,,-99.99,,2013-04-27 09:33:00,
2013-04-27 05:43:00,41.0,-99.9,30.38,SSE,150,7.0,-999.0,-999,-99.99,,,-99.99,,2013-04-27 09:43:00,
2013-04-27 05:53:00,41.0,-99.9,30.38,SSE,150,7.0,-999.0,-999,-99.99,,,-99.99,,2013-04-27 09:53:00,
2013-04-27 06:00:00,45.0,-99.9,30.37,South,180,8.0,-999.0,-999,-99.99,,,-99.99,,2013-04-27 10:00:00,
2013-04-27 06:23:00,45.0,-99.9,30.37,South,180,8.0,-999.0,-999,-99.99,,,-99.99,,2013-04-27 10:23:00,
2013-04-27 06:33:00,45.0,-99.9,30.37,South,180,8.0,-999.0,-999,-99.99,,,-99.99,,2013-04-27 10:33:00,
2013-04-27 06:42:00,45.0,-99.9,30.37,South,180,8.0,-999.0,-999,-99.99,,,-99.99,,2013-04-27 10:42:00,
2013-04-27 06:53:00,45.0,-99.9,30.37,South,180,8.0,-999.0,-999,-99.99,,,-99.99,,2013-04-27 10:53:00,
2013-04-27 07:00:00,44.0,-99.9,30.37,South,170,9.0,-999.0,-999,-99.99,,,-99.99,,2013-04-27 11:00:00,
2013-04-27 07:22:00,44.0,-99.9,30.37,South,170,9.0,-999.0,-999,-99.99,,,-99.99,,2013-04-27 11:22:00,
2013-04-27 07:32:00,44.0,-99.9,30.37,South,170,9.0,-999.0,-999,-99.99,,,-99.99,,2013-04-27 11:32:00,
2013-04-27 07:42:00,44.0,-99.9,30.37,South,170,9.0,-999.0,-999,-99.99,,,-99.99,,2013-04-27 11:42:00,
2013-04-27 07:52:00,44.0,-99.9,30.37,South,170,9.0,-999.0,-999,-99.99,,,-99.99,,2013-04-27 11:52:00,
2013-04-27 08:00:00,45.0,-99.9,30.40,South,180,3.0,-999.0,-999,-99.99,,,-99.99,,2013-04-27 12:00:00,
2013-04-27 08:22:00,45.0,-99.9,30.40,South,180,3.0,-999.0,-999,-99.99,,,-99.99,,2013-04-27 12:22:00,
2013-04-27 08:32:00,45.0,-99.9,30.40,South,180,3.0,-999.0,-999,-99.99,,,-99.99,,2013-04-27 12:32:00,
2013-04-27 08:42:00,45.0,-99.9,30.40,South,180,3.0,-999.0,-999,-99.99,,,-99.99,,2013-04-27 12:42:00,
2013-04-27 08:52:00,45.0,-99.9,30.40,South,180,3.0,-999.0,-999,-99.99,,,-99.99,,2013-04-27 12:52:00,
2013-04-27 09:00:00,50.0,-99.9,30.40,South,170,8.0,-999.0,-999,-99.99,,,-99.99,,2013-04-27 13:00:00,
2013-04-27 09:22:00,50.0,-99.9,30.40,South,170,8.0,-999.0,-999,-99.99,,,-99.99,,2013-04-27 13:22:00,
2013-04-27 09:32:00,50.0,-99.9,30.40,South,170,8.0,-999.0,-999,-99.99,,,-99.99,,2013-04-27 13:32:00,
2013-04-27 09:42:00,50.0,-99.9,30.40,South,170,8.0,-999.0,-999,-99.99,,,-99.99,,2013-04-27 13:42:00,
2013-04-27 09:52:00,50.0,-99.9,30.40,South,170,8.0,-999.0,-999,-99.99,,,-99.99,,2013-04-27 13:52:00,
2013-04-27 10:00:00,56.0,-99.9,30.38,ESE,120,5.0,-999.0,-999,-99.99,,,-99.99,,2013-04-27 14:00:00,
2013-04-27 10:22:00,56.0,-99.9,30.38,ESE,120,5.0,-999.0,-999,-99.99,,,-99.99,,2013-04-27 14:22:00,
2013-04-27 10:32:00,56.0,-99.9,30.38,ESE,120,5.0,-999.0,-999,-99.99,,,-99.99,,2013-04-27 14:32:00,
2013-04-27 10:42:00,56.0,-99.9,30.38,ESE,120,5.0,-999.0,-999,-99.99,,,-99.99,,2013-04-27 14:42:00,
2013-04-27 10:52:00,56.0,-99.9,30.38,ESE,120,5.0,-999.0,-999,-99.99,,,-99.99,,2013-04-27 14:52:00,
2013-04-27 11:00:00,58.0,-99.9,30.37,SSE,160,9.0,-999.0,-999,-99.99,,,-99.99,,2013-04-27 15:00:00,
2013-04-27 11:22:00,58.0,-99.9,30.37,SSE,160,9.0,-999.0,-999,-99.99,,,-99.99,,2013-04-27 15:22:00,
2013-04-27 11:33:00,58.0,-99.9,30.37,SSE,160,9.0,-999.0,-999,-99.99,,,-99.99,,2013-04-27 15:33:00,
2013-04-27 11:43:00,58.0,-99.9,30.37,SSE,160,9.0,-999.0,-999,-99.99,,,-99.99,,2013-04-27 15:43:00,
2013-04-27 11:53:00,58.0,-99.9,30.37,SSE,160,9.0,-999.0,-999,-99.99,,,-99.99,,2013-04-27 15:53:00,
2013-04-27 12:00:00,60.0,-99.9,30.35,SSE,150,9.0,-999.0,-999,-99.99,,,-99.99,,2013-04-27 16:00:00,
2013-04-27 12:23:00,60.0,-99.9,30.35,SSE,150,9.0,-999.0,-999,-99.99,,,-99.99,,2013-04-27 16:23:00,
2013-04-27 12:33:00,60.0,-99.9,30.35,SSE,150,9.0,-999.0,-999,-99.99,,,-99.99,,2013-04-27 16:33:00,
2013-04-27 12:42:00,60.0,-99.9,30.35,SSE,150,9.0,-999.0,-999,-99.99,,,-99.99,,2013-04-27 16:42:00,
2013-04-27 12:53:00,60.0,-99.9,30.35,SSE,150,9.0,-999.0,-999,-99.99,,,-99.99,,2013-04-27 16:53:00,
2013-04-27 13:00:00,61.0,-99.9,30.32,SE,140,11.0,-999.0,-999,-99.99,,,-99.99,,2013-04-27 17:00:00,
2013-04-27 13:22:00,61.0,-99.9,30.32,SE,140,11.0,-999.0,-999,-99.99,,,-99.99,,2013-04-27 17:22:00,
2013-04-27 13:32:00,61.0,-99.9,30.32,SE,140,11.0,-999.0,-999,-99.99,,,-99.99,,2013-04-27 17:32:00,
2013-04-27 13:42:00,61.0,-99.9,30.32,SE,140,11.0,-999.0,-999,-99.99,,,-99.99,,2013-04-27 17:42:00,
2013-04-27 13:53:00,61.0,-99.9,30.32,SE,140,11.0,-999.0,-999,-99.99,,,-99.99,,2013-04-27 17:53:00,
2013-04-27 14:00:00,63.0,-99.9,30.30,SE,140,13.0,-999.0,-999,-99.99,,,-99.99,,2013-04-27 18:00:00,
2013-04-27 14:22:00,63.0,-99.9,30.30,SE,140,13.0,-999.0,-999,-99.99,,,-99.99,,2013-04-27 18:22:00,
2013-04-27 14:32:00,63.0,-99.9,30.30,SE,140,13.0,-999.0,-999,-99.99,,,-99.99,,2013-04-27 18:32:00,
2013-04-27 14:42:00,63.0,-99.9,30.30,SE,140,13.0,-999.0,-999,-99.99,,,-99.99,,2013-04-27 18:42:00,
2013-04-27 14:52:00,63.0,-99.9,30.30,SE,140,13.0,-999.0,-999,-99.99,,,-99.99,,2013-04-27 18:52:00,
2013-04-27 15:00:00,64.0,-99.9,30.29,SE,140,10.0,-999.0,-999,-99.99,,,-99.99,,2013-04-27 19:00:00,
2013-04-27 15:22:00,64.0,-99.9,30.29,SE,140,10.0,-999.0,-999,-99.99,,,-99.99,,2013-04-27 19:22:00,
2013-04-27 15:32:00,64.0,-99.9,30.29,SE,140,10.0,-999.0,-999,-99.99,,,-99.99,,2013-04-27 19:32:00,
2013-04-27 15:42:00,64.0,-99.9,30.29,SE,140,10.0,-999.0,-999,-99.99,,,-99.99,,2013-04-27 19:42:00,
2013-04-27 15:53:00,64.0,-99.9,30.29,SE,140,10.0,-999.0,-999,-99.99,,,-99.99,,2013-04-27 19:53:00,
2013-04-27 16:00:00,64.0,-99.9,30.27,SSE,160,11.0,-999.0,-999,-99.99,,,-99.99,,2013-04-27 20:00:00,
2013-04-27 16:22:00,64.0,-99.9,30.27,SSE,160,11.0,-999.0,-999,-99.99,,,-99.99,,2013-04-27 20:22:00,
2013-04-27 16:32:00,64.0,-99.9,30.27,SSE,160,11.0,-999.0,-999,-99.99,,,-99.99,,2013-04-27 20:32:00,
2013-04-27 16:42:00,64.0,-99.9,30.27,SSE,160,11.0,-999.0,-999,-99.99,,,-99.99,,2013-04-27 20:42:00,
2013-04-27 16:52:00,64.0,-99.9,30.27,SSE,160,11.0,-999.0,-999,-99.99,,,-99.99,,2013-04-27 20:52:00,
2013-04-27 17:00:00,65.0,-99.9,30.24,SE,140,10.0,-999.0,-999,-99.99,,,-99.99,,2013-04-27 21:00:00,
2013-04-27 17:22:00,65.0,-99.9,30.24,SE,140,10.0,-999.0,-999,-99.99,,,-99.99,,2013-04-27 21:22:00,
2013-04-27 17:33:00,65.0,-99.9,30.24,SE,140,10.0,-999.0,-999,-99.99,,,-99.99,,2013-04-27 21:33:00,
2013-04-27 17:43:00,65.0,-99.9,30.24,SE,140,10.0,-999.0,-999,-99.99,,,-99.99,,2013-04-27 21:43:00,
2013-04-27 17:53:00,65.0,-99.9,30.24,SE,140,10.0,-999.0,-999,-99.99,,,-99.99,,2013-04-27 21:53:00,
2013-04-27 18:00:00,65.0,-99.9,30.22,SSE,150,6.0,-999.0,-999,-99.99,,,-99.99,,2013-04-27 22:00:00,
2013-04-27 18:23:00,65.0,-99.9,30.22,SSE,150,6.0,-999.0,-999,-99.99,,,-99.99,,2013-04-27 22:23:00,
2013-04-27 18:32:00,65.0,-99.9,30.22,SSE,150,6.0,-999.0,-999,-99.99,,,-99.99,,2013-04-27 22:32:00,
2013-04-27 18:42:00,65.0,-99.9,30.22,SSE,150,6.0,-999.0,-999,-99.99,,,-99.99,,2013-04-27 22:42:00,
2013-04-27 18:53:00,65.0,-99.9,30.22,SSE,150,6.0,-999.0,-999,-99.99,,,-99.99,,2013-04-27 22:53:00,
2013-04-27 19:00:00,60.0,-99.9,30.19,East,80,15.0,-999.0,-999,-99.99,,,-99.99,,2013-04-27 23:00:00,
2013-04-27 19:22:00,60.0,-99.9,30.19,East,80,15.0,-999.0,-999,-99.99,,,-99.99,,2013-04-27 23:22:00,
2013-04-27 19:32:00,60.0,-99.9,30.19,East,80,15.0,-999.0,-999,-99.99,,,-99.99,,2013-04-27 23:32:00,
2013-04-27 19:43:00,60.0,-99.9,30.19,East,80,15.0,-999.0,-999,-99.99,,,-99.99,,2013-04-27 23:43:00,
2013-04-27 19:53:00,60.0,-99.9,30.19,East,80,15.0,-999.0,-999,-99.99,,,-99.99,,2013-04-27 23:53:00,